Location: Newark
(30.1000°N, 109.4667°E)
Time: 22:26:57
(UTC+00:00)

Tiros 1 despin weight - All Passes

Search period start: 17 February 2020 00:00
Search period end: 27 February 2020 00:00
Orbit: 594 x 642 km, 48.2° (Epoch: 16 February)

Date Brightness Start Highest point End Pass type
(mag) Time Alt. Az. Time Alt. Az. Time Alt. Az.
17 Feb - 01:08:16 10° NNW 01:12:21 35° NE 01:16:29 10° ESE daylight
17 Feb - 02:49:53 10° WNW 02:53:49 31° SW 02:57:48 10° SSE daylight
17 Feb - 16:52:48 10° S 16:56:28 25° SE 17:00:06 10° ENE night (unlit)
17 Feb - 18:33:39 10° WSW 18:37:50 40° NW 18:42:00 10° NE night (unlit)
17 Feb - 20:19:12 10° NNW 20:20:18 11° NNW 20:21:24 10° N visible
17 Feb - 23:44:17 10° NNW 23:46:53 15° NNE 23:49:28 10° ENE daylight
18 Feb - 01:24:33 10° NW 01:28:59 73° NE 01:33:28 10° SE daylight
18 Feb - 03:07:55 10° W 03:10:07 13° SW 03:12:20 10° SSW daylight
18 Feb - 17:08:27 10° SW 17:12:50 59° SE 17:17:11 10° ENE night (unlit)
18 Feb - 18:51:07 10° W 18:54:36 22° NNW 18:58:05 10° NNE night (unlit)
19 Feb - 00:00:08 10° NNW 00:03:47 25° NNE 00:07:28 10° E daylight
19 Feb - 01:41:10 10° WNW 01:45:29 50° SW 01:49:49 10° SSE daylight
19 Feb - 15:45:29 10° SSE 15:48:10 16° SE 15:50:51 10° E night (unlit)
19 Feb - 17:24:56 10° WSW 17:29:21 62° NW 17:33:43 10° NE night (unlit)
19 Feb - 19:09:15 10° NW 19:11:33 14° NNW 19:13:50 10° N night (unlit)
19 Feb - 22:36:32 10° N 22:38:08 12° NNE 22:39:45 10° NE visible
20 Feb - 00:16:16 10° NW 00:20:32 46° NE 00:24:49 10° ESE daylight
20 Feb - 01:58:25 10° W 02:01:50 22° SW 02:05:16 10° S daylight
20 Feb - 16:00:23 10° SSW 16:04:29 36° SE 16:08:32 10° ENE night (unlit)
20 Feb - 17:42:03 10° W 17:46:00 31° NNW 17:49:57 10° NNE night (unlit)
20 Feb - 22:52:04 10° NNW 22:55:09 18° NNE 22:58:15 10° ENE visible
21 Feb - 00:32:40 10° NW 00:37:05 81° SW 00:41:33 10° SE daylight
21 Feb - 16:16:26 10° SW 16:20:54 83° SE 16:25:21 10° NE night (unlit)
21 Feb - 17:59:47 10° WNW 18:02:51 18° NNW 18:05:55 10° NNE night (unlit)
21 Feb - 23:08:03 10° NNW 23:12:00 31° NNE 23:15:58 10° E daylight
22 Feb - 00:49:29 10° WNW 00:53:31 35° SW 00:57:34 10° SSE daylight
22 Feb - 14:52:39 10° S 14:56:10 22° SE 14:59:39 10° E night (unlit)
22 Feb - 16:33:11 10° WSW 16:37:29 45° NW 16:41:45 10° NE night (unlit)
22 Feb - 18:18:20 10° NW 18:19:53 12° NNW 18:21:26 10° N night (unlit)
22 Feb - 21:44:09 10° N 21:46:28 14° NNE 21:48:48 10° NE visible
22 Feb - 23:24:17 10° NW 23:28:39 64° NE 23:33:04 10° ESE daylight
23 Feb - 01:07:14 10° W 01:09:49 15° SW 01:12:24 10° SSW daylight
23 Feb - 15:08:09 10° SSW 15:12:31 51° SE 15:16:50 10° ENE night (unlit)
23 Feb - 16:50:33 10° W 16:54:13 24° NNW 16:57:52 10° NNE night (unlit)
23 Feb - 21:59:55 10° NNW 22:03:25 23° NNE 22:06:55 10° E visible
23 Feb - 23:40:50 10° WNW 23:45:10 57° SW 23:49:31 10° SSE daylight
24 Feb - 13:45:31 10° SSE 13:47:52 14° SE 13:50:12 10° E night (unlit)
24 Feb - 15:24:30 10° SW 15:29:00 71° NW 15:33:27 10° NE night (unlit)
24 Feb - 17:08:34 10° WNW 17:11:08 15° NNW 17:13:42 10° NNE night (unlit)
24 Feb - 20:36:31 10° N 20:37:43 11° NNE 20:38:54 10° NE visible
24 Feb - 22:16:00 10° NW 22:20:11 41° NE 22:24:22 10° ESE visible
24 Feb - 23:57:56 10° WNW 00:01:32 24° SW 00:05:08 10° S daylight
25 Feb - 14:00:09 10° SSW 14:04:10 32° SE 14:08:08 10° ENE night (unlit)
25 Feb - 15:41:32 10° W 15:45:38 34° NW 15:49:43 10° NNE night (unlit)
25 Feb - 20:51:52 10° NNW 20:54:46 17° NNE 20:57:39 10° ENE visible
25 Feb - 22:32:21 10° NW 22:36:46 89° NE 22:41:12 10° SE visible
26 Feb - 00:17:13 10° WSW 00:17:47 10° SW 00:18:21 10° SW daylight
26 Feb - 14:16:03 10° SW 14:20:34 74° SE 14:25:02 10° NE night (unlit)
26 Feb - 15:59:10 10° WNW 16:02:27 20° NNW 16:05:44 10° NNE night (unlit)
26 Feb - 21:07:48 10° NNW 21:11:38 28° NNE 21:15:27 10° E visible
26 Feb - 22:49:06 10° WNW 22:53:12 39° SW 22:57:20 10° SSE visible
